{"data":{"norad_id":54790,"intl_designator":"2022-175AJ","name":"STARLINK-5445","alt_names":[],"object_type":"PAYLOAD","status":"ACTIVE","operator":null,"country":"US","launch_date":"2022-12-17","launch_site_code":"AFETR","launch_vehicle":null,"mission":null,"orbit_class":"UNKNOWN","rcs_meters":null,"size_class":null,"mass_kg":null,"dimensions":null,"purposes":["comms"],"wikipedia_slug":null,"has_3d_model":false,"image_url":null,"decayed_at":null,"tle_current":{"epoch":"2026-09-20T21:38:30.220224Z","epoch_age_seconds":54644,"freshness":"FRESH","line1":"1 54790U 22175AJ  26263.90173866 -.00003485  00000+0 -92159-4 0  9992","line2":"2 54790  53.1615 217.8239 0001224  70.4816 289.6319 15.34366031209804","mean_motion":15.34366031,"eccentricity":0.0001224,"inclination_deg":53.1615,"raan_deg":217.8239,"arg_perigee_deg":70.4816,"mean_anomaly_deg":289.6319,"bstar":-9.2159e-5,"rev_number":20980,"period_min":93.849835756694,"perigee_km":461.9668738929,"apogee_km":463.64153629991,"semimajor_km":6840.9412050964,"source":"CELESTRAK","updated_at":"2026-09-21T09:00:33.126690Z"}}}